Weather History for Palm Springs, CA

Change the Weather History Date:

Monday, April 2, 2012

  Actual Average Record
Temperature  
Mean Temperature 67 °F 68 °F  
Max Temperature 82 °F 82 °F 103 °F (1966)
Min Temperature 51 °F 55 °F 35 °F (1956)
Degree Days  
Heating Degree Days 0 1  
Month to date heating degree days 0 2  
Since 1 July heating degree days 755 853  
Cooling Degree Days 2 5  
Month to date cooling degree days 2 9  
Year to date cooling degree days 123 129  
Growing Degree Days 16 (Base 50)    
Moisture  
Dew Point 21 °F    
Average Humidity 28    
Maximum Humidity 48    
Minimum Humidity 8    
Precipitation  
Precipitation 0.00 in 0.01 in 0.15 in (1997)
Month to date precipitation T 0.01  
Year to date precipitation 0.59 2.65  
Since 1 July precipitation 2.07 5.45  
Snow  
Snow 0.00 in - - ()
Month to date snowfall 0.0  
Year to date snowfall 0.0  
Since 1 July snowfall 0.0  
Snow Depth 0.00 in    
Sea Level Pressure  
Sea Level Pressure 29.94 in    
Wind  
Wind Speed 5 mph (NNW)    
Max Wind Speed 14 mph    
Max Gust Speed 21 mph    
Visibility 10 miles    
Events      
T = Trace of Precipitation, MM = Missing Value Source: NWS Daily Summary

Daily Weather History Graph

Daily Weather History Graph

Search for Another Location

Airport:

Trip Planner

Search our weather history database for the weather conditions in past years. The results will help you decide how hot, cold, wet, or windy it might be!

Date:

Astronomy

Apr. 02, 2012 Rise Set
Actual Time 6:31 AM PDT 7:07 PM PDT
Civil Twilight 6:06 AM PDT 7:33 PM PDT
Nautical Twilight 5:36 AM PDT 8:02 PM PDT
Astronomical Twilight 5:06 AM PDT 8:33 PM PDT
Moon 2:59 PM PDT (4/2) 3:34 AM PDT (4/2)
Length of Visible Light 13h 26m
Length of Day
12h 36m
Waxing Gibbous, 79% of the Moon is Illuminated
Apr 2
Waxing Gibbous
Apr 6
Full
Apr 13
Last Quarter
Apr 21
New
Apr 29
First Quarter

Hourly Weather History & Observations

Time (PDT) Temp. Dew Point Humidity Pressure Visibility Wind Dir Wind Speed Gust Speed Precip Events Conditions
12:53 AM 59.0 °F 33.1 °F 38% 29.98 in 10.0 mi Variable 4.6 mph - N/A   Clear
1:53 AM 59.0 °F 30.0 °F 33% 29.99 in 10.0 mi North 8.1 mph - N/A   Clear
2:53 AM 55.9 °F 30.9 °F 39% 29.98 in 10.0 mi Calm Calm - N/A   Clear
3:53 AM 55.9 °F 32.0 °F 40% 29.99 in 10.0 mi NNE 5.8 mph - N/A   Clear
4:53 AM 52.0 °F 32.0 °F 47% 29.99 in 10.0 mi North 3.5 mph - N/A   Clear
5:53 AM 52.0 °F 32.0 °F 47% 29.99 in 10.0 mi NNW 5.8 mph - N/A   Clear
6:53 AM 52.0 °F 30.9 °F 45% 30.01 in 10.0 mi NNW 3.5 mph - N/A   Clear
7:53 AM 57.9 °F 27.0 °F 31% 30.03 in 10.0 mi North 11.5 mph 20.7 mph N/A   Clear
8:53 AM 63.0 °F 27.0 °F 26% 30.02 in 10.0 mi SSE 4.6 mph - N/A   Clear
9:53 AM 71.1 °F 14.0 °F 11% 29.99 in 10.0 mi NE 4.6 mph - N/A   Clear
10:53 AM 72.0 °F 10.9 °F 10% 29.99 in 10.0 mi WSW 4.6 mph - N/A   Clear
11:53 AM 75.0 °F 10.0 °F 8% 29.98 in 10.0 mi Variable 4.6 mph - N/A   Clear
12:53 PM 75.9 °F 10.0 °F 8% 29.94 in 10.0 mi Variable 3.5 mph - N/A   Clear
1:53 PM 77.0 °F 10.9 °F 8% 29.90 in 10.0 mi Variable 4.6 mph - N/A   Scattered Clouds
2:53 PM 79.0 °F 12.0 °F 8% 29.88 in 10.0 mi South 8.1 mph - N/A   Clear
3:53 PM 79.0 °F 12.0 °F 8% 29.86 in 10.0 mi Calm Calm - N/A   Clear
4:53 PM 80.1 °F 12.9 °F 8% 29.84 in 10.0 mi SSW 6.9 mph - N/A   Scattered Clouds
5:53 PM 80.1 °F 15.1 °F 9% 29.84 in 10.0 mi Variable 4.6 mph - N/A   Scattered Clouds
6:53 PM 77.0 °F 14.0 °F 9% 29.85 in 10.0 mi South 4.6 mph - N/A   Clear
7:53 PM 75.0 °F 15.1 °F 10% 29.87 in 10.0 mi NNE 9.2 mph 19.6 mph N/A   Clear
8:53 PM 73.0 °F 19.0 °F 13% 29.90 in 10.0 mi WNW 5.8 mph - N/A   Clear
9:53 PM 70.0 °F 27.0 °F 20% 29.93 in 10.0 mi Variable 4.6 mph - N/A   Clear
10:53 PM 68.0 °F 21.0 °F 17% 29.94 in 10.0 mi Calm Calm - N/A   Clear
11:53 PM 63.0 °F 30.0 °F 29% 29.94 in 10.0 mi NNW 8.1 mph - N/A   Clear